Theta_e
352 352 351 351 352 352 353 352 352 351 353 352 354 352 353 354 355 355 356 356 356 356 357 356 354 352 352 350 350 352 353 353 352 352 353 354 355 359 361 360 359 359 359 358 358 358 358 358 357 357 357 357 358 358 356 357 357 357 357 357 357 357 357 357 357 357 357 357 357 357 356 356 355 355 355 354 354 354 354 353 353 353 353 352 352
351 350 351 350 351 351 352 353 352 352 352 351 353 352 354 355 355 355 354 355 355 355 358 357 356 352 352 351 349 351 353 353 352 352 353 353 355 357 361 360 360 360 359 358 358 358 358 357 358 357 357 358 358 358 357 357 357 358 358 357 357 357 357 358 358 357 357 358 358 357 357 356 356 355 355 355 355 355 355 354 354 354 354 353 353
351 349 349 349 348 349 352 352 351 351 353 352 355 355 355 354 355 356 355 355 354 355 356 356 356 352 350 351 350 351 353 354 353 352 352 353 354 355 357 362 360 360 359 359 359 358 359 359 359 359 358 358 358 358 357 358 358 359 358 357 358 357 358 358 358 358 358 357 358 357 357 357 356 356 356 356 356 355 355 355 355 354 355 354 354
351 350 350 349 348 350 352 351 351 352 354 353 354 356 356 355 355 356 356 356 355 356 355 353 353 351 349 349 350 350 352 353 353 353 352 353 353 354 356 357 361 361 360 360 360 359 359 359 359 359 359 359 359 359 359 359 358 358 358 358 359 359 358 358 358 358 358 358 358 358 358 357 357 357 356 356 356 356 356 356 355 356 355 355 354
351 355 355 349 349 349 351 353 353 354 353 355 355 355 355 354 354 356 356 356 355 353 352 349 347 345 346 348 349 349 352 353 353 353 352 352 353 354 354 356 358 360 362 361 360 361 360 359 359 360 359 359 360 359 360 360 360 359 359 360 359 359 359 359 358 359 359 359 358 358 358 358 358 358 358 357 357 357 357 357 357 357 356 357 357
353 352 351 350 350 350 351 352 353 354 354 355 353 353 354 355 355 357 358 358 350 352 347 344 344 346 347 347 349 350 351 351 352 352 352 352 353 353 354 354 356 357 358 360 360 361 361 361 361 361 361 361 361 361 361 361 362 361 361 361 361 361 361 361 360 360 360 360 360 360 360 360 359 359 359 359 359 358 358 358 359 358 358 358 358
353 352 350 350 350 350 351 352 353 356 354 354 354 354 355 356 357 357 354 352 350 356 350 349 347 346 347 349 348 348 350 350 351 351 352 353 353 353 354 354 355 356 356 357 359 359 360 362 362 363 362 362 362 363 363 363 363 363 363 364 364 363 364 363 362 361 362 362 362 362 362 361 361 361 360 360 360 360 361 361 360 359 358 358 358
353 352 350 350 350 349 350 352 353 356 354 354 358 356 357 357 358 358 353 348 353 350 351 351 350 346 346 348 348 351 349 349 349 349 350 352 353 353 353 354 354 354 357 357 357 356 358 360 361 362 362 363 363 364 364 365 365 365 365 365 365 365 365 365 365 365 365 365 364 364 364 363 363 362 362 361 361 362 362 360 360 360 360 358 360
354 352 350 350 350 350 351 352 355 356 356 356 356 359 359 358 357 359 354 353 350 347 348 350 349 350 347 345 345 350 349 350 348 349 349 350 351 351 352 352 353 357 358 357 357 357 356 356 359 360 362 363 362 363 364 365 365 366 366 366 366 366 365 365 365 365 365 365 366 365 365 365 363 363 364 363 363 362 362 362 361 361 362 362 362
353 352 350 351 351 351 352 354 355 357 357 357 358 358 357 356 357 356 358 356 353 350 350 350 347 345 347 347 348 347 349 349 348 353 351 350 350 350 351 351 352 352 354 356 356 357 356 356 356 357 359 360 361 362 364 365 366 367 367 368 368 368 367 366 366 365 365 366 366 366 366 366 365 365 365 364 364 364 363 362 362 362 361 361 361
353 353 350 354 352 351 351 354 357 359 359 358 358 359 360 354 354 356 358 358 356 354 353 352 348 345 347 347 347 349 350 348 350 351 352 349 349 351 349 351 351 352 353 354 354 356 356 356 356 355 355 354 357 359 361 364 364 365 366 367 368 369 370 369 367 367 367 368 367 367 367 367 366 366 365 364 364 363 363 363 362 361 360 361 361
352 352 352 353 352 352 352 355 359 361 359 358 357 355 355 353 356 362 358 356 359 359 354 353 347 344 349 350 346 348 349 349 349 348 352 351 351 353 353 353 353 353 352 354 355 355 356 356 358 357 356 355 355 357 359 360 361 362 363 366 368 368 368 369 369 369 368 368 369 368 367 367 366 364 363 364 363 363 362 361 360 360 360 359 359
353 352 351 358 354 353 355 356 359 361 359 358 355 357 361 358 359 357 360 352 353 352 349 346 345 346 343 343 344 344 351 356 347 347 347 349 351 352 354 354 355 354 356 355 356 356 356 357 357 357 356 356 355 354 355 356 357 359 361 362 363 365 367 369 370 370 370 369 369 368 366 364 364 364 364 364 363 362 360 359 359 360 359 358 356
355 352 353 352 356 356 357 358 359 360 358 359 361 366 358 356 355 354 353 354 352 351 347 344 340 337 339 339 341 341 347 353 349 348 347 347 348 350 351 350 351 352 354 356 357 357 357 358 358 358 357 357 356 356 355 355 355 354 357 361 364 366 367 368 370 370 369 369 369 366 364 364 364 364 363 363 362 361 360 359 359 357 355 353 354
356 354 353 353 355 358 358 358 359 360 361 356 356 357 357 357 356 355 354 352 356 355 349 345 342 343 341 339 334 333 342 342 343 343 344 346 346 346 347 347 348 351 353 354 355 357 356 358 358 358 358 357 357 356 356 355 356 359 361 362 364 366 369 370 371 373 372 369 367 364 364 364 364 363 363 362 362 360 359 358 356 354 352 352 351
356 355 356 356 357 357 358 359 359 361 359 355 355 356 356 357 357 359 353 350 348 350 357 347 347 344 337 335 334 332 332 337 337 342 343 343 343 343 344 345 346 347 350 350 348 353 356 357 357 358 358 358 358 357 357 357 358 362 363 364 364 363 365 369 372 371 368 366 365 365 365 364 363 363 362 362 361 360 357 356 354 353 351 350 349
359 359 359 358 359 359 359 359 359 360 360 357 356 357 358 357 358 360 354 351 348 350 353 352 345 348 341 338 335 333 332 334 334 341 339 342 341 340 344 344 344 346 348 346 347 350 349 351 356 357 358 358 358 358 359 359 359 361 363 362 363 362 364 367 370 368 365 365 365 366 365 365 364 362 362 362 361 357 356 354 354 352 351 349 347
361 361 361 362 360 360 359 360 360 362 361 358 357 358 358 358 359 358 354 353 352 347 348 355 355 357 344 343 346 338 339 340 335 337 342 345 343 341 341 343 345 346 348 346 345 345 351 350 354 355 356 356 357 358 358 358 361 361 362 363 365 365 365 364 365 366 364 365 366 366 365 364 363 362 361 361 360 356 355 355 353 349 347 346 345
361 362 363 364 362 360 360 360 362 361 366 359 359 359 360 360 359 357 356 361 351 349 350 351 346 352 357 353 351 351 345 342 339 338 336 341 340 340 340 339 342 342 342 343 343 344 346 349 350 350 353 354 355 356 357 357 357 359 361 364 362 365 366 364 360 361 363 365 367 366 365 365 363 362 361 360 359 357 355 353 350 347 346 345 344
361 361 362 364 362 361 361 361 361 360 366 361 359 359 359 360 361 356 360 360 353 351 351 350 349 347 358 352 353 352 347 345 342 339 336 333 336 341 340 339 338 340 342 341 341 342 343 346 347 348 351 352 354 355 356 356 357 358 359 357 364 367 366 363 359 359 362 366 367 365 365 365 364 362 361 360 358 356 353 351 349 347 345 344 343
361 360 361 363 365 361 361 361 360 359 368 363 361 360 359 358 360 358 358 356 354 353 352 353 350 352 353 353 348 346 345 344 345 348 343 334 336 336 340 343 339 342 339 339 341 343 344 346 347 349 353 356 356 356 355 357 358 359 360 360 365 369 368 362 357 359 365 365 366 365 364 364 365 363 361 359 358 355 352 350 348 346 344 343 341
359 360 360 362 364 363 360 361 361 360 366 363 361 361 359 358 359 358 358 359 358 355 356 354 354 354 353 351 350 349 346 347 344 343 340 339 335 336 338 338 338 343 340 340 341 341 342 344 346 346 350 355 355 355 356 357 360 358 360 361 364 366 365 361 358 360 361 362 364 364 362 363 364 364 361 357 357 352 351 349 347 345 344 341 340
359 360 360 361 362 365 362 361 361 365 366 361 361 360 359 359 360 360 360 358 359 361 365 359 356 356 352 354 352 348 347 344 346 344 340 340 339 337 336 340 338 338 347 343 351 348 345 345 344 344 350 352 355 356 357 358 359 360 362 362 360 362 363 361 359 360 360 357 361 362 361 360 362 362 359 355 353 351 349 348 346 345 344 342 340
357 358 359 360 362 364 365 363 363 362 362 361 360 360 360 360 360 361 360 357 358 359 357 356 354 356 356 354 354 350 350 350 349 349 345 343 338 339 338 343 345 341 342 349 346 343 345 343 344 345 348 351 355 358 360 362 363 361 365 363 359 360 362 362 361 360 358 357 357 358 359 359 359 359 358 355 353 352 349 347 346 343 343 341 340
355 356 357 360 362 361 362 361 361 361 361 359 360 360 360 360 360 360 359 359 359 358 357 358 357 358 357 357 355 352 352 351 349 348 345 343 342 338 339 340 343 344 349 345 346 345 344 345 346 346 348 353 355 358 359 362 363 362 362 363 358 358 358 360 361 359 356 354 354 355 355 355 357 357 355 355 354 353 351 349 346 342 341 340 339
354 356 358 359 362 362 363 362 362 362 362 359 359 360 360 360 360 360 359 359 359 360 360 359 359 360 359 357 355 355 355 353 352 349 347 342 342 338 341 342 341 343 345 349 348 346 351 348 350 355 357 358 359 361 365 364 365 362 362 362 359 354 356 357 359 359 358 357 356 356 355 357 358 358 358 356 355 354 353 350 346 342 341 340 338
355 357 360 360 361 362 362 361 361 361 363 361 362 361 362 361 362 360 361 358 359 360 359 360 360 359 358 358 358 358 357 356 353 353 349 348 346 344 344 342 341 337 341 345 346 343 347 350 351 359 363 367 365 365 367 367 364 364 366 369 366 355 353 353 355 357 356 357 358 357 357 357 357 357 357 357 357 355 354 352 347 342 339 338 336
356 358 359 360 360 361 362 362 361 360 362 361 361 361 360 360 360 360 359 361 359 360 360 360 360 360 359 358 357 355 356 356 357 357 355 355 349 347 348 345 343 340 340 344 343 351 348 352 359 358 361 363 365 366 366 364 366 364 366 368 368 363 354 351 352 353 352 351 353 356 355 356 357 357 357 357 358 357 355 353 350 344 339 337 336
356 359 358 360 360 361 361 361 361 361 361 362 360 360 360 361 360 359 359 361 361 359 358 359 360 360 359 358 358 358 358 361 360 359 359 360 354 349 350 350 346 344 340 341 343 347 355 351 351 364 360 365 364 365 366 367 363 364 366 366 365 365 356 349 349 349 349 350 350 352 353 354 355 356 359 359 358 357 356 354 351 345 340 337 335
357 358 359 359 359 363 360 361 361 360 361 362 361 360 360 360 360 360 360 359 360 360 359 360 361 359 362 361 358 358 360 359 359 359 361 361 358 353 353 351 351 348 344 342 344 344 351 354 352 358 364 362 363 365 364 366 360 362 367 368 365 365 353 347 347 347 348 348 347 348 351 353 354 355 355 356 355 354 354 354 350 345 342 338 334
359 359 358 358 358 359 360 360 360 361 361 361 361 360 360 359 359 358 358 358 357 357 357 361 360 361 360 360 358 357 358 359 361 360 363 362 359 358 356 352 350 354 347 347 343 352 348 354 357 356 357 361 360 361 362 364 362 362 366 367 367 359 354 359 351 349 347 347 345 345 347 349 349 349 349 349 349 350 351 352 350 346 343 339 334
358 358 358 358 358 357 358 359 359 360 360 360 360 360 360 359 358 357 358 358 358 357 357 359 361 363 361 360 360 359 358 360 360 360 361 361 362 360 359 356 353 351 351 348 345 347 352 352 356 356 356 360 363 361 364 364 362 359 367 367 368 359 365 366 356 352 349 347 346 345 344 344 342 342 345 347 348 349 350 352 350 348 345 340 334
357 357 357 358 358 357 357 359 359 360 361 361 361 361 360 359 358 358 358 358 358 358 358 358 359 361 362 360 360 359 358 358 359 360 360 361 360 360 360 358 354 352 351 350 348 349 353 352 352 355 357 358 358 363 362 361 363 364 362 367 367 363 364 365 365 354 349 346 345 344 342 341 340 340 342 344 346 348 349 349 348 346 345 341 337
356 355 356 357 359 358 357 358 359 359 361 361 360 360 359 359 358 357 357 358 358 358 358 358 359 359 360 359 358 358 357 357 356 356 358 359 358 358 358 358 357 356 354 353 350 349 350 354 354 356 355 358 358 363 359 359 361 365 364 365 363 363 363 364 365 364 350 347 345 343 342 341 338 338 340 342 344 346 346 345 344 340 340 340 335
356 356 355 355 357 358 358 358 358 359 360 360 360 360 360 359 359 358 359 358 358 357 356 357 358 358 357 357 358 358 356 356 356 357 358 358 358 358 358 357 357 357 356 355 353 349 350 352 353 352 358 361 359 360 362 361 364 363 362 362 360 360 362 362 363 361 351 347 345 344 342 341 339 338 338 337 340 341 341 341 338 336 336 334 330
353 356 356 355 355 357 357 358 358 358 359 359 360 360 360 360 359 359 359 359 358 357 357 357 356 356 356 356 356 357 357 356 356 356 356 357 358 358 357 357 357 357 357 355 355 355 352 351 355 354 357 356 358 359 359 362 360 362 360 362 361 360 360 360 361 360 355 348 345 343 343 341 338 337 336 336 336 335 335 334 333 332 330 331 329
352 353 354 355 355 355 355 357 357 358 358 359 359 359 359 360 360 359 359 358 358 357 357 357 358 357 356 356 357 357 356 354 354 353 354 354 355 355 355 356 356 356 355 356 355 354 353 351 352 355 356 357 359 359 360 358 360 360 360 360 358 360 361 358 355 355 350 346 346 345 342 340 339 338 336 335 334 333 332 332 331 329 329 328 325
352 351 352 352 354 354 355 357 358 358 358 358 359 359 359 359 359 359 359 359 358 357 357 356 356 357 357 357 357 357 356 354 354 354 354 354 354 353 354 355 355 355 354 354 355 354 353 353 352 352 355 354 356 356 358 359 356 356 357 359 360 359 359 354 353 352 353 353 354 355 348 346 342 336 335 335 334 332 331 331 331 330 327 324 321
350 349 349 351 353 354 354 355 356 358 358 357 357 358 358 359 359 359 358 358 358 357 357 356 356 357 357 357 358 358 357 356 355 354 355 354 353 354 355 355 355 354 353 353 353 352 352 351 351 351 351 352 352 353 356 357 357 356 355 355 351 355 358 355 352 354 354 352 351 346 348 349 346 346 340 334 332 331 331 330 330 328 327 325 322
349 348 348 348 349 352 353 354 355 357 357 356 357 357 357 357 357 357 358 358 357 357 357 357 356 356 357 357 357 357 358 358 357 357 356 356 356 354 355 355 354 353 352 352 350 350 350 349 349 349 350 350 352 352 354 353 354 353 354 354 349 349 351 355 355 352 354 355 354 353 349 348 347 345 336 335 335 334 332 331 333 335 333 329 326
349 349 349 348 348 348 351 352 353 355 355 355 355 356 355 356 356 356 356 356 357 356 356 356 356 356 356 356 356 357 359 361 359 359 358 358 356 355 356 355 355 353 353 351 351 350 349 347 347 348 347 348 349 349 348 349 348 348 352 352 352 352 351 350 352 355 352 352 354 353 355 356 356 358 357 356 356 347 344 337 339 339 336 330 328
348 350 350 349 348 347 347 349 351 352 353 354 354 345 348 356 356 355 355 356 356 356 356 355 354 354 354 355 356 360 362 364 362 359 354 358 361 358 357 357 355 354 353 351 351 350 349 348 347 347 346 346 346 349 347 349 351 352 349 350 348 352 351 349 351 353 355 353 352 354 356 357 354 357 358 355 355 356 355 352 350 344 337 331 329
346 346 348 347 346 346 346 347 347 348 351 353 345 336 336 340 354 355 354 354 355 355 354 354 354 354 354 354 355 357 361 364 364 359 357 354 354 355 357 359 360 356 353 351 351 350 349 348 349 348 346 346 347 349 348 347 349 349 350 352 350 349 348 345 340 347 357 354 354 353 351 355 357 354 355 356 355 355 353 352 339 336 332 330 330
347 347 345 345 345 345 344 345 345 347 348 346 335 333 333 333 341 355 354 354 353 353 353 353 353 354 354 353 353 353 354 356 358 361 361 356 351 349 348 349 351 354 354 355 353 352 351 349 348 348 347 347 347 349 347 347 349 351 353 351 351 349 348 346 346 342 353 355 350 348 348 358 355 354 354 354 354 355 353 344 336 331 329 329 329
348 346 346 345 345 345 345 345 343 345 347 340 332 330 331 330 331 342 353 354 352 352 352 352 352 353 353 353 352 352 351 357 359 358 357 357 351 348 347 348 350 347 340 340 344 355 356 353 350 348 349 349 349 350 351 354 355 350 351 350 350 349 348 347 346 347 349 357 353 349 346 351 353 351 350 354 354 356 354 342 337 334 331 330 328
347 346 346 346 346 346 346 345 346 345 345 340 331 327 326 327 329 333 348 352 353 353 352 352 351 352 352 351 351 351 353 354 356 357 358 357 356 356 355 355 354 354 350 343 339 339 347 353 354 351 352 354 349 351 354 356 353 349 349 348 350 349 348 345 350 351 353 353 349 348 346 348 352 351 350 353 354 355 357 345 336 333 331 329 328
346 346 347 348 348 348 346 347 348 347 346 337 330 326 322 322 325 331 344 348 350 352 353 353 353 353 353 353 353 352 352 353 354 354 354 354 354 353 353 352 352 353 353 352 352 352 350 349 352 353 354 356 354 354 354 356 355 353 353 352 352 351 351 352 350 351 350 353 351 348 343 347 352 350 349 352 352 355 357 343 337 333 332 330 329
350 350 349 349 349 349 349 348 347 348 350 333 325 324 321 320 323 335 341 344 346 348 350 352 353 353 353 354 353 353 352 352 351 343 349 355 352 351 350 350 350 350 349 351 340 343 353 353 353 352 353 354 345 354 355 354 355 357 354 355 351 350 347 344 342 345 344 349 352 350 346 346 353 347 348 352 354 353 357 358 342 336 334 332 330
348 348 349 350 351 351 351 351 349 349 350 340 324 322 322 319 324 338 341 342 344 345 346 348 350 352 354 354 354 353 353 352 346 333 332 346 352 350 350 349 348 348 348 350 338 331 331 330 331 333 333 332 331 329 328 329 342 351 352 348 346 348 344 341 342 343 344 349 349 349 346 344 349 350 348 351 353 352 354 356 358 341 334 331 328
345 347 347 347 349 350 351 351 351 351 351 346 327 318 317 317 329 341 341 342 343 344 345 347 349 350 351 354 356 355 353 353 339 332 331 342 348 349 348 347 347 347 348 350 349 347 330 326 325 326 328 329 329 328 328 327 326 335 346 344 348 348 344 343 340 342 345 347 348 351 347 344 348 352 348 352 352 352 352 356 358 352 334 330 324
344 347 348 347 350 351 352 352 353 352 353 348 328 320 317 315 325 339 341 341 341 342 343 344 345 347 348 350 351 352 353 348 330 326 327 340 347 348 348 347 345 346 347 350 349 348 351 349 350 347 344 339 340 341 343 333 333 341 345 346 348 346 343 343 344 344 341 345 352 355 346 347 347 350 349 346 344 350 353 354 352 352 349 347 345
Wind_Speed
5 4 5 5 4 4 4 4 3 3 3 3 3 3 3 3 3 3 3 3 3 3 3 2 0 2 2 3 3 2 2 1 2 2 2 2 3 4 6 5 5 5 5 5 5 5 5 5 5 6 6 6 7 7 7 7 8 8 9 9 9 10 10 10 10 10 10 10 10 11 11 11 11 11 12 12 12 12 12 12 11 11 11 11 11
5 3 4 4 3 3 4 4 3 3 3 4 3 3 3 3 3 3 3 3 3 3 3 3 2 1 2 3 3 3 2 2 2 3 3 3 3 4 7 6 6 6 6 6 6 6 6 6 6 6 6 7 8 8 8 8 8 9 10 10 10 11 11 11 11 12 12 12 11 12 12 12 12 12 12 12 13 13 13 12 12 12 12 12 12
4 4 3 3 3 3 4 3 3 3 3 3 3 3 2 2 2 3 3 3 3 2 2 3 2 2 2 3 3 3 3 2 2 2 3 4 4 4 5 8 7 7 7 7 7 7 7 7 8 7 7 8 8 8 8 9 9 9 10 11 10 11 11 12 12 12 12 12 12 12 13 13 13 13 12 13 13 13 13 13 12 12 12 12 13
4 3 4 3 3 3 3 3 2 2 3 2 2 2 2 2 3 3 3 3 4 3 2 2 3 3 2 3 3 3 3 3 3 3 3 3 4 4 4 4 7 8 8 8 8 8 8 8 8 8 9 9 10 10 10 10 11 11 11 11 11 12 12 12 12 12 13 12 13 13 13 13 13 13 13 13 13 13 13 13 13 12 13 13 13
3 4 3 3 3 3 2 2 2 3 2 2 2 2 2 3 3 2 3 2 2 3 1 1 2 3 3 3 3 3 3 3 3 3 4 3 3 3 3 3 4 6 7 8 9 8 8 9 9 9 10 10 10 10 11 11 11 12 12 13 13 13 14 14 13 13 13 13 13 13 13 13 13 13 14 14 14 14 13 13 13 13 13 14 15
4 4 3 3 3 3 3 2 2 3 2 1 1 1 2 2 4 3 2 2 3 3 0 1 1 1 2 2 2 3 2 3 3 3 3 3 3 3 3 3 3 3 4 7 8 9 9 9 10 10 10 10 11 11 11 12 12 12 13 13 13 14 14 14 14 13 14 14 13 14 14 14 14 14 14 14 14 14 14 14 14 14 14 15 15
4 4 3 3 3 2 1 1 2 1 0 1 1 1 1 2 2 2 2 1 2 1 1 1 1 2 3 2 3 2 2 3 3 3 4 3 3 3 3 3 3 3 4 3 5 8 9 9 10 10 11 11 11 12 12 12 13 13 13 14 14 14 14 14 14 13 13 13 13 13 13 13 13 14 14 15 14 14 15 15 15 14 15 15 16
4 4 3 2 3 2 1 1 1 0 1 0 1 2 2 2 2 2 2 0 1 2 2 2 1 3 2 3 3 3 3 3 4 4 4 3 4 3 3 3 3 3 5 4 3 4 8 9 10 10 10 11 11 12 12 13 13 14 14 14 14 14 14 14 13 13 13 13 13 13 13 13 14 14 14 15 15 13 14 15 14 13 14 14 13
4 3 3 3 2 2 1 1 1 1 0 1 2 1 2 2 1 1 1 2 2 2 2 2 1 1 2 3 3 3 4 4 4 3 3 4 4 3 3 3 3 5 4 4 4 3 5 8 8 9 10 11 11 11 12 13 13 14 14 14 14 14 14 13 13 12 12 12 12 12 13 13 13 13 14 14 15 14 13 13 13 13 12 12 12
4 4 3 2 2 2 1 1 1 1 1 2 2 2 1 0 3 1 1 1 2 2 3 2 1 1 2 3 4 3 4 3 3 4 4 5 4 4 4 3 3 3 3 3 4 3 3 5 7 8 9 9 9 10 11 12 13 13 13 14 14 13 13 12 12 11 12 11 11 12 12 13 13 12 12 13 13 12 12 12 13 13 13 11 10
4 4 4 3 2 2 1 0 0 0 1 2 2 2 1 1 2 3 1 2 2 2 2 2 1 1 2 2 3 5 4 4 3 4 4 5 4 4 3 4 3 3 4 4 3 3 3 3 2 3 4 7 9 10 10 11 11 12 12 13 13 13 13 12 12 11 11 11 11 10 11 11 13 11 11 11 12 11 11 11 11 10 9 9 10
4 4 4 3 2 2 1 0 0 0 1 2 3 2 3 3 3 3 4 3 2 1 1 0 1 3 2 2 2 3 4 3 4 5 4 5 5 3 4 3 3 3 4 4 3 3 3 3 3 3 3 5 8 9 11 11 11 11 11 12 12 13 13 12 12 11 11 11 10 10 9 10 11 10 11 11 10 11 11 10 8 9 9 9 9
4 4 4 3 3 2 2 1 1 0 1 2 2 2 1 1 2 1 3 4 2 2 2 2 3 2 3 4 3 2 3 3 4 4 5 5 4 4 3 3 4 4 3 3 3 3 3 3 3 3 3 3 5 8 10 11 11 10 10 11 12 13 13 13 13 12 10 11 10 9 8 7 9 10 8 9 9 10 9 8 9 8 8 9 9
3 4 3 4 3 2 1 0 0 0 1 1 1 1 2 2 2 3 2 2 3 2 2 1 4 2 1 4 5 5 1 2 3 4 4 3 4 4 3 4 5 4 2 2 3 3 3 3 3 3 3 3 4 4 5 6 6 8 9 11 12 12 12 12 12 11 10 11 9 8 7 7 9 9 8 8 8 8 8 8 8 8 9 9 10
3 4 4 3 3 3 2 2 2 2 1 1 1 2 2 3 3 2 3 2 1 1 4 3 2 0 1 1 3 5 5 4 2 3 2 2 2 4 3 4 5 3 2 3 3 3 3 3 3 3 4 4 4 4 4 5 6 11 10 9 9 11 11 11 10 10 9 9 7 7 7 8 9 8 8 8 7 7 7 7 7 8 9 10 11
4 4 3 3 3 3 2 2 3 3 3 2 1 0 2 2 2 2 2 3 4 3 3 2 2 2 3 2 1 1 3 4 5 5 1 2 2 3 3 4 3 2 2 3 3 3 3 2 4 3 4 4 4 4 4 4 8 10 10 9 8 10 10 10 9 8 8 8 7 7 8 8 8 7 8 8 6 6 6 7 7 8 9 10 11
4 4 4 4 4 3 3 3 3 3 3 2 2 1 1 1 1 1 2 1 3 2 1 1 1 1 5 1 2 3 1 4 3 4 3 3 1 2 3 4 3 2 3 3 2 3 3 3 3 3 4 4 4 4 4 4 5 5 6 8 8 9 10 8 7 7 7 7 7 7 7 7 8 7 7 7 5 5 5 6 7 7 9 10 11
4 4 4 4 4 4 4 3 3 3 3 3 2 2 2 1 1 2 2 1 2 3 2 1 3 2 1 0 3 0 2 2 1 4 5 1 3 2 2 3 2 2 3 3 3 3 2 4 3 4 4 4 4 4 3 4 4 4 4 6 9 9 9 7 5 6 7 7 6 6 7 6 7 7 7 7 5 5 5 6 6 7 8 9 11
4 4 4 4 4 4 4 4 3 3 3 3 2 1 0 1 2 2 2 2 1 2 3 2 1 1 2 2 1 1 1 1 2 1 5 6 4 3 3 2 2 3 3 3 3 3 3 3 4 4 4 3 3 4 3 3 5 5 8 10 9 8 8 6 5 5 7 7 7 6 7 7 6 7 7 6 4 4 5 6 6 7 7 9 11
4 5 4 4 4 4 4 4 3 2 2 3 2 2 1 0 1 1 2 1 3 3 2 2 2 2 2 3 2 2 2 1 3 1 1 3 6 4 2 3 2 2 3 3 3 4 5 4 4 5 4 4 3 3 3 3 3 4 4 8 8 7 6 6 5 5 6 7 7 6 7 7 6 6 6 6 4 4 5 6 6 7 7 8 10
4 5 4 4 4 4 4 4 3 3 2 2 2 2 3 2 2 2 2 2 1 2 3 2 2 2 2 2 1 3 3 2 1 1 1 2 3 4 6 5 3 2 2 2 3 3 4 5 4 4 4 4 3 3 2 2 3 3 5 8 6 5 5 6 6 6 5 6 7 7 6 7 6 6 6 6 5 4 6 6 7 6 7 7 9
4 4 4 4 4 4 4 5 5 3 3 3 3 3 3 3 3 3 3 3 1 2 3 2 1 1 1 1 3 2 3 1 2 3 2 3 1 4 3 4 6 5 4 4 3 4 4 4 4 4 3 4 3 3 2 3 3 3 4 7 6 5 5 6 7 7 7 6 7 7 7 7 6 6 5 5 5 5 5 6 6 6 6 7 8
4 4 4 4 4 4 4 5 4 4 3 4 4 4 3 3 3 3 4 4 2 2 2 1 2 2 2 1 2 2 1 1 3 2 1 1 2 3 3 1 2 5 4 5 5 4 4 3 3 3 3 3 3 2 2 3 3 4 7 7 6 5 5 7 8 8 8 7 6 7 8 8 7 6 5 5 4 5 5 6 6 6 6 7 7
4 4 4 4 4 4 4 3 4 3 4 4 3 3 2 3 3 3 3 2 3 3 3 3 2 2 2 1 1 1 1 2 2 2 2 2 1 3 3 3 1 3 5 6 3 3 3 2 2 3 2 2 3 2 2 3 4 7 5 6 6 6 6 7 8 9 9 8 7 7 7 7 7 7 5 4 4 5 5 5 6 6 6 7 7
4 4 4 5 4 4 3 3 3 3 4 3 3 3 3 3 3 4 3 4 4 4 3 2 2 1 1 1 1 2 2 2 1 2 1 1 2 2 1 0 2 3 3 3 3 5 1 3 3 3 3 3 2 2 2 2 3 4 4 4 6 6 8 9 9 10 10 9 8 7 7 7 7 7 5 3 3 4 4 4 4 5 6 6 7
5 6 5 4 4 4 4 4 4 4 4 4 4 3 3 3 3 3 3 3 3 3 3 2 1 1 1 1 1 1 1 1 2 2 2 2 1 2 2 1 0 2 2 3 3 4 3 3 3 2 3 3 2 1 2 2 2 4 4 4 6 7 8 9 10 10 10 10 9 8 8 7 8 8 7 4 3 4 4 3 2 4 4 5 6
5 5 4 5 5 4 4 4 4 4 4 3 3 3 3 3 3 3 2 3 3 3 2 3 2 2 2 2 1 1 2 0 2 2 2 2 2 2 1 4 3 2 3 2 3 1 2 3 2 3 3 3 3 3 3 2 3 5 6 4 4 7 8 9 10 10 10 11 10 9 9 9 7 8 9 7 4 4 5 4 2 2 3 4 5
4 4 5 5 5 5 4 5 4 4 4 4 4 3 4 4 3 3 3 2 3 3 2 3 2 3 2 2 1 2 1 1 1 2 2 2 2 2 3 3 2 5 3 2 2 2 1 2 2 1 3 4 4 3 3 4 3 6 6 3 4 5 7 8 9 9 10 10 10 10 10 10 9 9 9 9 7 4 5 5 3 1 1 2 3
4 4 4 5 5 5 5 4 4 4 4 4 3 3 4 4 4 4 4 3 3 4 2 3 2 2 2 2 1 1 1 1 1 1 1 1 1 2 2 2 4 2 2 3 3 1 1 1 2 2 1 3 4 3 4 3 3 4 3 3 3 3 5 7 8 9 9 10 10 10 10 10 10 9 9 9 8 6 5 5 4 2 1 2 1
5 4 5 5 5 5 4 4 4 4 4 3 3 3 3 3 3 3 3 3 3 2 2 2 2 2 1 1 1 1 1 1 1 1 0 1 2 2 2 2 2 0 2 2 4 2 3 2 2 2 4 5 3 4 2 3 3 4 3 3 3 3 7 8 8 8 9 9 9 10 11 11 10 10 10 9 9 8 5 5 5 3 3 3 1
5 5 5 5 4 4 4 4 4 4 3 3 3 3 3 3 2 2 2 2 3 3 2 3 2 2 3 2 2 2 2 2 1 1 0 1 2 1 1 2 2 2 4 3 1 2 2 3 3 2 2 4 4 4 3 2 3 3 3 3 4 6 7 6 8 8 8 8 9 10 11 11 11 10 10 10 9 8 7 5 6 5 4 4 3
5 6 5 5 5 5 4 4 4 3 3 3 3 3 3 3 3 2 2 2 3 4 3 2 2 2 3 3 3 2 2 2 2 1 1 1 2 2 2 2 1 2 3 3 3 5 3 4 4 5 4 3 5 5 4 4 4 3 3 4 4 6 4 4 7 8 9 9 8 9 10 11 11 11 11 11 10 9 8 6 6 6 6 5 4
5 5 6 6 5 5 5 4 4 4 5 4 4 3 4 4 3 3 2 3 3 3 3 3 2 3 3 4 4 3 2 3 3 2 2 2 2 2 2 2 2 2 3 3 3 5 4 2 2 3 2 2 4 2 4 5 5 5 5 4 4 4 4 4 5 8 10 9 9 9 10 11 11 11 11 11 11 10 9 8 7 6 5 5 5
6 6 6 5 5 5 4 5 5 5 5 5 4 4 4 5 4 3 3 3 4 4 3 4 4 3 3 4 4 4 3 4 3 3 2 2 2 3 3 3 3 3 4 3 4 2 5 3 3 2 3 2 3 2 3 5 6 4 5 5 4 2 3 4 4 5 9 10 9 9 10 10 11 11 11 12 12 12 10 10 9 7 7 6 6
5 5 6 5 5 5 5 5 5 5 5 5 4 5 5 5 5 4 4 4 5 5 5 5 5 3 4 4 5 4 2 3 4 3 2 3 2 3 3 2 3 3 3 4 3 3 4 4 3 3 3 2 3 5 4 3 4 3 5 5 4 4 3 3 4 4 7 10 10 9 9 9 10 11 11 11 11 12 11 10 10 8 7 7 7
5 5 5 5 5 5 5 5 5 5 5 5 5 5 6 6 6 6 5 5 5 5 5 6 5 4 5 4 5 4 3 4 4 4 3 2 3 3 3 3 3 3 3 3 4 4 3 3 3 3 2 3 4 4 3 3 4 3 3 4 3 4 5 3 3 4 5 9 10 10 10 9 9 10 10 10 11 11 11 10 10 9 8 7 8
5 4 4 4 5 5 5 6 6 6 6 6 6 6 6 6 6 6 6 5 5 6 6 6 5 5 5 5 5 4 3 4 4 3 3 4 3 3 4 3 3 3 2 3 3 3 4 5 4 3 2 3 3 4 3 4 3 3 2 4 4 5 6 4 3 3 6 9 9 9 10 9 9 9 9 9 10 11 11 11 10 10 9 8 9
5 5 5 4 5 6 6 6 6 7 7 6 7 7 7 6 6 6 6 6 6 6 6 5 6 5 5 6 6 4 4 5 5 4 3 5 3 3 4 4 3 2 3 3 3 3 4 5 4 4 2 3 3 3 2 1 3 5 6 5 3 2 3 6 5 3 3 4 5 5 6 6 7 8 8 8 10 11 11 12 11 10 10 10 10
6 5 5 5 5 6 6 6 6 7 7 7 7 7 7 6 7 6 6 6 6 6 6 6 6 6 6 6 6 6 6 6 6 6 5 5 4 5 5 4 3 3 3 3 3 3 4 4 3 4 4 2 3 5 1 0 2 3 4 6 7 4 1 3 7 7 4 5 6 7 7 8 8 7 7 8 9 11 11 12 11 11 11 11 10
6 6 5 6 5 5 6 7 7 6 7 6 7 7 6 6 6 7 7 6 7 6 6 6 7 6 7 7 7 7 7 7 7 6 6 5 5 5 5 4 4 4 4 4 3 3 4 3 4 4 2 4 4 3 2 2 4 1 2 3 5 7 8 4 3 6 6 5 6 6 4 4 5 7 8 8 10 12 11 11 12 12 12 12 11
4 5 5 5 6 6 6 7 6 6 6 6 5 6 7 7 6 7 7 7 7 7 6 7 6 7 6 7 7 7 8 10 11 10 8 7 5 6 6 5 5 5 5 4 4 4 4 4 5 3 4 5 5 5 6 5 5 7 2 1 4 5 3 5 8 5 5 5 5 5 4 3 5 6 4 4 5 7 8 10 10 12 13 12 11
3 3 4 5 5 6 7 7 6 5 6 5 8 12 10 7 7 6 6 6 7 6 7 6 6 7 7 7 7 12 13 14 13 13 13 12 11 8 7 5 6 5 5 5 4 4 4 5 5 5 5 6 6 5 5 6 4 2 3 3 4 5 3 4 6 6 2 3 3 5 6 2 3 6 4 5 6 4 5 4 5 7 9 10 10
3 4 4 5 5 6 6 6 7 6 6 6 12 13 13 14 8 7 7 7 7 6 7 7 8 7 7 7 7 9 11 12 11 13 12 13 13 13 14 11 8 6 5 6 6 4 4 5 5 4 5 7 7 5 5 6 5 4 5 4 5 3 4 5 8 8 1 2 2 3 7 3 2 6 7 6 7 5 5 6 11 12 13 12 11
1 2 3 4 5 6 5 5 6 6 7 9 12 13 13 14 13 9 7 6 6 6 6 7 7 6 7 6 6 5 6 8 8 8 10 12 13 13 14 13 13 12 11 8 8 6 5 5 6 6 5 6 8 6 6 4 7 5 5 4 5 6 6 6 5 7 3 1 5 6 9 3 2 5 7 7 6 5 7 9 12 12 12 13 11
3 4 5 5 5 6 5 6 6 6 6 9 12 13 13 14 15 12 6 6 6 7 7 7 7 7 7 6 6 5 6 11 9 7 7 8 10 12 12 12 11 11 12 13 12 10 7 6 6 8 7 6 7 7 5 4 3 6 7 6 5 5 6 6 7 6 7 2 3 6 8 4 2 5 7 7 5 5 7 9 12 13 13 13 12
6 6 5 6 6 6 6 6 6 5 6 7 9 11 12 14 14 11 7 8 8 7 8 7 7 7 8 7 6 6 6 6 6 6 7 7 7 6 7 6 6 9 11 13 14 15 12 8 7 8 11 7 9 9 10 5 5 8 8 8 8 7 7 9 7 7 5 2 4 5 8 7 2 3 6 6 3 5 6 10 13 13 13 13 12
4 4 4 5 5 5 5 5 5 5 5 7 9 10 11 12 13 10 6 7 6 7 7 8 8 8 8 7 8 8 8 7 7 9 8 8 7 6 7 7 7 7 7 7 7 7 7 7 9 10 11 9 9 10 10 7 8 9 9 9 7 8 7 4 4 6 6 4 6 4 7 8 2 3 6 6 5 5 6 9 12 13 13 13 12
1 1 2 4 4 4 3 3 4 5 5 5 6 7 9 11 10 6 6 7 7 7 8 8 8 8 8 7 8 8 9 9 11 12 11 6 4 6 7 8 7 7 7 10 12 10 9 8 8 9 10 11 11 10 9 7 7 7 5 3 3 4 5 6 8 5 6 3 6 6 4 6 2 3 7 6 3 6 6 5 9 12 13 12 10
1 0 2 1 2 2 2 2 3 3 4 4 5 7 7 8 5 4 5 5 6 7 8 9 9 7 7 7 7 6 8 9 12 11 9 5 5 6 7 8 7 7 8 7 10 14 15 15 15 15 15 15 15 15 14 13 10 4 2 3 7 4 5 7 8 6 7 2 4 7 5 8 5 3 6 6 4 6 7 6 5 7 10 10 8
3 3 3 3 3 4 4 3 2 3 3 2 3 6 7 4 4 3 4 5 6 6 6 6 5 5 7 10 9 7 8 9 10 8 5 5 6 7 7 8 9 9 9 8 6 6 12 15 15 16 16 16 16 16 15 14 14 6 5 8 8 2 6 5 8 7 7 6 5 7 4 8 6 2 4 4 3 4 5 5 5 4 4 5 6
5 4 3 4 4 3 2 3 3 3 3 2 2 5 6 3 2 2 2 3 4 5 5 5 4 4 5 6 10 9 8 8 9 7 4 5 6 7 7 7 8 10 10 8 7 8 6 6 6 7 8 11 10 9 11 16 14 9 8 9 4 4 7 7 7 6 8 8 1 9 5 4 4 3 3 4 6 5 3 4 4 3 3 3 3
Wind_Direction
84 82 80 73 70 69 67 68 61 53 58 54 53 47 41 34 30 9 13 350 343 325 326 321 152 175 184 179 178 175 186 193 218 231 236 242 254 271 238 242 243 256 259 273 273 268 264 266 272 282 292 295 295 297 298 299 303 306 306 308 307 309 312 315 319 319 320 316 312 311 311 310 310 309 306 305 303 300 300 299 299 295 292 288 285
94 85 83 79 75 67 61 56 59 39 45 49 36 43 31 12 5 2 345 337 312 308 310 302 278 222 193 204 196 195 182 197 216 229 233 236 241 262 264 243 252 254 262 265 275 283 285 281 283 289 292 290 286 291 296 299 304 304 305 306 308 313 315 317 314 315 316 313 310 310 310 312 311 309 306 303 301 301 300 296 294 294 293 291 284
94 93 88 87 71 69 63 53 46 34 43 50 37 35 15 18 332 326 321 311 292 296 294 276 267 241 221 212 209 191 190 195 213 218 229 234 236 244 269 281 257 253 261 266 276 281 288 294 296 299 293 291 292 292 298 300 301 301 302 307 311 310 312 314 314 313 313 311 310 311 312 310 310 306 302 300 300 299 298 297 294 292 290 290 287
102 92 101 90 68 76 66 55 44 33 44 49 37 30 1 327 313 293 282 277 291 288 247 234 241 235 217 229 211 203 195 193 213 220 228 228 234 235 247 265 289 273 259 265 270 273 278 286 292 292 292 295 300 303 302 303 303 304 306 307 307 308 310 312 313 312 311 313 312 311 310 308 306 304 302 301 299 298 296 295 293 290 288 284 281
109 108 98 95 93 82 71 61 39 32 40 31 22 357 349 324 298 287 286 273 294 302 208 182 213 225 213 222 213 219 201 193 211 223 226 227 224 230 236 253 264 290 290 277 271 276 281 282 284 286 291 295 296 297 299 299 301 303 305 305 306 308 308 309 311 311 312 311 311 311 309 308 306 304 301 300 298 297 296 294 292 288 282 276 273
115 98 96 95 88 77 82 57 45 37 35 43 347 346 308 308 296 308 312 348 336 325 108 160 190 172 193 219 206 225 201 216 215 226 229 233 227 226 232 234 251 262 281 287 283 279 279 284 287 290 293 294 295 297 298 299 300 301 301 302 303 303 305 306 307 308 309 310 310 308 307 305 304 301 300 299 299 298 296 294 289 286 282 278 275
123 121 109 111 105 92 64 48 47 39 49 211 198 251 260 273 293 314 321 317 333 299 21 110 245 204 209 191 220 211 211 224 223 229 228 233 225 227 226 235 239 245 260 264 273 275 281 283 284 288 291 293 295 297 298 298 299 299 299 300 301 301 302 304 306 307 306 306 306 304 301 299 296 297 300 301 299 297 294 289 287 287 288 285 285
121 121 115 113 121 129 127 138 87 81 192 202 202 299 307 303 286 232 318 241 256 27 11 20 304 266 240 212 208 206 213 223 227 231 231 222 229 229 226 234 236 248 256 257 256 265 269 276 281 284 286 289 291 294 297 298 297 297 297 298 299 299 300 301 300 301 301 301 299 298 296 295 298 303 304 303 299 294 295 299 297 294 293 296 291
119 114 125 136 135 145 180 175 173 177 191 35 345 326 321 309 280 221 189 37 29 357 349 330 356 247 222 222 232 221 225 222 226 233 229 225 228 234 232 228 234 245 246 251 254 256 265 271 279 283 285 286 288 289 291 293 295 296 296 297 297 298 299 299 299 298 298 298 296 296 295 299 305 305 302 303 306 309 309 313 312 313 311 316 310
128 125 121 146 149 161 163 168 166 190 39 9 327 314 266 210 344 338 35 170 326 325 314 345 356 157 179 203 223 216 237 232 224 228 218 234 232 237 233 232 232 233 242 247 252 250 254 264 275 285 288 291 292 289 289 290 291 293 294 294 293 294 295 295 294 295 294 294 295 296 297 305 311 310 309 316 319 321 320 319 322 331 337 340 336
134 139 134 146 136 159 190 130 205 191 37 7 320 336 10 19 15 318 275 237 228 246 265 283 350 164 125 187 194 220 225 219 213 218 218 229 238 242 227 234 233 231 237 239 244 247 255 263 270 280 288 292 295 295 293 291 290 290 292 292 292 292 292 291 293 291 292 296 298 300 305 309 319 319 322 325 323 318 317 326 348 350 348 341 335
139 138 143 144 151 172 158 157 179 93 39 348 324 354 353 359 339 2 358 356 51 34 352 179 69 54 22 326 277 277 230 209 210 215 215 222 225 231 243 234 225 240 238 240 240 249 253 260 267 277 288 292 294 295 295 293 293 293 293 294 293 292 292 290 291 294 299 302 306 311 315 324 330 330 332 331 328 329 344 1 356 350 351 348 344
146 149 157 170 160 170 158 80 58 127 178 245 283 293 319 230 305 27 25 12 10 10 20 59 55 358 347 344 333 247 273 213 217 213 216 221 212 222 227 241 240 236 236 236 242 252 252 256 261 266 275 283 291 290 291 291 291 293 297 302 302 303 302 303 304 308 313 318 323 330 338 339 340 341 341 340 338 348 3 358 358 359 357 353 346
158 161 164 169 160 171 141 123 93 97 214 241 266 31 37 29 16 28 32 20 1 1 326 89 22 103 358 328 332 326 314 267 252 247 234 227 218 223 223 237 248 243 231 228 242 241 244 247 252 264 267 272 275 283 291 295 298 297 299 302 307 309 306 306 309 314 321 330 338 346 347 348 351 351 349 348 350 3 357 358 5 4 355 353 348
170 171 170 184 184 164 182 170 170 187 206 288 15 55 49 47 42 64 348 21 10 329 352 38 131 137 123 66 358 359 333 350 313 281 283 255 233 232 225 235 248 244 219 230 235 242 246 246 248 250 261 264 269 278 287 292 293 302 303 305 306 307 309 313 316 324 331 338 348 349 354 358 360 355 355 351 1 3 4 9 13 6 358 350 345
182 180 185 180 180 190 178 180 192 187 191 212 242 112 63 67 54 68 104 15 3 336 358 348 129 162 350 26 280 67 358 325 330 306 271 242 215 237 229 241 251 236 198 243 244 242 248 244 251 248 253 261 270 275 280 284 297 305 306 310 315 310 310 315 321 334 339 343 351 355 357 359 0 357 360 350 4 5 13 18 15 6 354 346 341
185 187 186 183 183 186 183 191 191 187 175 179 177 154 127 117 124 84 84 125 3 349 321 339 342 140 136 91 1 18 205 261 343 284 353 25 333 264 240 237 240 221 226 254 272 261 271 267 257 254 253 261 264 270 278 287 301 302 307 309 307 308 311 313 318 332 336 340 349 354 357 357 359 0 359 352 9 10 18 17 12 5 356 345 339
188 191 195 178 185 186 182 175 193 186 182 171 151 150 136 113 199 176 140 218 131 60 13 347 1 17 118 163 162 172 256 291 37 329 321 278 302 310 279 268 222 218 221 243 251 259 236 264 255 262 256 256 264 267 271 284 290 294 293 298 306 305 305 307 310 326 330 334 345 354 355 355 3 357 357 355 14 11 11 12 11 9 2 348 340
191 192 190 186 177 176 176 179 176 180 174 148 167 170 180 186 171 165 175 140 135 85 47 313 326 42 9 43 341 336 130 39 325 217 353 326 345 353 337 313 262 240 239 242 246 261 265 255 268 268 266 255 259 263 270 278 285 291 294 297 305 303 299 298 307 319 326 329 339 352 354 355 360 356 352 356 14 7 9 14 14 12 5 354 342
183 188 186 180 167 170 171 167 167 177 182 178 182 200 141 265 154 143 137 141 161 123 120 11 108 305 20 23 11 50 53 134 159 85 189 331 329 329 255 314 326 244 246 250 241 248 263 258 252 255 257 261 248 255 268 276 276 287 293 297 295 299 296 295 302 311 315 327 335 346 351 351 351 353 355 357 9 4 11 14 14 12 11 2 346
192 182 186 173 175 171 172 174 175 181 186 175 188 177 187 164 150 147 159 157 140 126 116 132 106 72 3 359 29 46 37 43 54 102 107 33 298 343 327 327 331 324 312 259 253 242 237 243 241 255 263 272 261 259 264 272 279 276 283 291 289 293 289 289 297 300 301 319 326 332 341 344 343 349 354 355 355 3 9 14 14 15 13 9 354
197 192 184 186 185 171 173 181 191 186 184 185 176 187 190 180 189 181 165 135 128 150 132 163 155 165 98 152 32 28 32 351 25 41 57 61 46 305 314 341 343 303 315 331 307 271 259 255 263 265 270 275 289 292 293 280 276 279 280 283 286 282 279 282 285 289 296 305 313 319 330 334 337 340 348 352 348 356 7 14 16 20 15 11 4
184 191 192 186 191 186 179 191 186 183 178 174 193 205 196 170 163 159 156 148 161 162 116 91 122 125 129 110 105 85 109 99 299 329 343 278 357 307 301 217 261 320 297 322 310 296 271 261 262 280 286 292 301 311 294 273 262 277 278 278 277 273 270 272 275 278 284 294 301 309 316 323 328 334 347 350 345 344 359 13 16 21 15 13 17
186 184 203 196 187 194 195 181 187 179 190 190 200 205 171 157 153 156 162 153 146 138 138 146 148 129 142 148 165 185 200 197 229 192 187 245 195 266 279 305 307 226 288 314 284 289 308 291 294 294 299 296 273 255 262 267 278 282 283 278 275 272 266 265 266 269 274 281 287 293 301 307 314 320 327 336 332 331 343 5 16 17 16 13 21
198 191 204 198 187 183 190 187 199 201 189 179 200 185 172 165 166 160 160 169 172 163 160 175 168 187 168 187 193 187 236 245 194 216 208 133 175 278 292 296 290 314 319 359 339 316 307 350 335 310 280 261 262 277 269 266 263 283 287 289 282 274 266 264 263 264 267 271 276 278 284 289 298 304 301 296 295 301 313 346 12 16 13 12 21
189 203 195 187 192 197 189 197 202 197 185 190 189 189 177 181 176 172 186 180 158 163 156 145 165 236 212 175 214 236 245 209 209 181 175 152 146 239 282 337 318 303 303 339 328 358 343 16 351 334 318 311 315 276 250 271 261 283 284 284 284 269 263 261 262 265 266 267 268 271 272 275 285 295 299 297 277 293 305 311 355 21 17 11 17
202 203 179 187 195 189 193 193 200 200 189 186 183 181 187 179 186 199 176 159 176 161 165 163 164 165 192 222 278 287 293 196 190 222 182 190 196 179 147 8 352 352 338 326 331 52 304 299 314 19 10 350 345 315 310 317 316 310 309 279 281 273 261 259 262 267 269 270 269 269 269 270 273 282 289 293 285 275 287 295 302 30 32 17 13
197 185 195 186 192 195 193 201 198 201 202 197 188 182 178 182 189 184 194 175 170 190 181 172 174 184 197 191 230 291 281 290 246 242 227 205 187 149 139 120 72 345 325 353 349 296 329 305 303 280 23 12 349 333 341 335 340 335 320 299 285 285 268 261 265 269 273 274 274 272 270 267 265 272 277 282 280 257 274 283 291 298 70 40 16
180 190 186 198 200 192 193 198 195 202 208 208 199 195 182 183 185 184 198 190 178 204 175 190 190 180 194 191 215 250 280 276 285 252 227 185 176 177 180 186 156 81 315 320 293 269 275 275 340 292 20 10 347 337 333 329 330 324 305 284 278 271 285 276 271 272 275 277 277 274 270 267 264 261 262 268 272 270 267 270 268 225 183 114 45
178 183 181 191 200 202 191 199 196 196 208 205 205 202 188 203 198 203 191 166 185 174 203 195 194 177 181 174 200 235 231 267 282 293 207 169 172 195 202 184 163 180 187 245 284 214 269 286 211 293 324 338 325 320 304 301 301 298 292 303 314 308 307 297 285 278 277 277 277 273 270 269 266 262 265 269 273 274 261 252 259 227 213 155 131
173 176 179 186 187 202 196 198 195 204 201 206 195 197 195 222 215 224 191 177 184 206 205 197 207 189 190 206 198 234 215 241 251 251 193 166 174 179 184 144 193 148 163 164 266 286 178 290 282 230 279 307 316 309 300 278 281 302 311 324 312 316 310 300 295 290 283 278 273 270 270 270 268 265 266 267 265 266 260 236 243 228 216 179 158
183 178 179 184 185 187 200 199 198 201 204 209 193 190 186 219 226 236 225 196 213 226 222 204 219 206 199 221 220 220 216 216 240 238 196 202 170 187 190 188 180 172 145 156 191 272 225 233 275 288 279 281 300 296 293 298 303 316 319 310 312 315 314 311 312 305 299 290 281 274 271 270 267 264 263 264 264 261 259 234 227 229 218 184 177
179 178 186 193 192 191 195 204 204 200 202 208 194 185 190 204 216 228 229 218 234 246 240 244 227 212 215 224 239 235 196 226 241 251 249 186 187 196 177 160 186 164 167 170 225 264 287 226 254 271 302 315 296 251 298 298 304 315 320 301 316 320 314 311 309 304 301 302 296 285 278 275 271 265 262 262 262 259 255 250 243 236 222 195 180
180 190 191 190 188 189 197 203 208 207 207 207 198 190 199 203 213 206 216 217 235 248 239 255 239 230 218 226 244 243 204 225 235 240 243 235 198 187 186 192 188 194 197 186 219 224 276 302 270 249 272 189 258 245 264 294 296 312 310 311 310 306 310 313 310 309 313 312 308 294 282 275 272 268 265 262 262 262 256 252 249 237 228 217 196
181 192 191 189 191 186 199 207 207 212 208 211 198 194 204 207 210 212 212 211 226 238 238 243 245 233 234 233 247 242 219 232 235 241 230 238 228 233 225 197 220 218 190 203 177 235 253 268 262 282 259 223 227 279 272 250 276 286 293 298 313 315 302 298 299 299 306 308 312 306 288 276 270 269 268 266 265 266 264 258 255 248 232 221 211
187 197 194 193 189 195 201 209 209 214 205 208 200 205 207 205 211 215 208 209 217 234 242 248 248 232 235 245 250 241 228 238 249 245 237 232 230 227 241 221 213 239 204 194 213 214 236 257 263 236 264 283 261 251 262 272 276 282 271 291 295 295 300 294 282 290 298 299 300 300 293 280 270 268 269 270 271 271 268 263 259 256 242 224 217
197 190 203 193 199 194 202 205 207 209 210 201 203 208 212 209 213 216 212 207 212 221 232 241 249 243 242 239 253 252 227 243 260 257 250 242 239 234 242 232 221 230 217 209 214 209 223 249 272 261 266 269 266 279 274 286 295 273 266 274 298 299 297 291 284 278 279 284 281 283 284 279 272 267 266 269 268 269 269 266 259 255 250 233 221
195 195 201 200 202 207 207 209 207 213 212 208 207 210 210 209 212 219 218 214 213 215 222 230 236 238 245 243 248 241 226 224 244 246 245 248 245 243 248 249 240 237 240 233 215 217 224 247 247 290 265 269 290 277 285 257 299 317 313 293 252 238 297 318 311 302 308 310 321 312 293 280 267 265 266 265 265 263 265 265 262 255 252 243 226
197 201 207 209 213 210 217 210 214 213 216 213 215 215 214 209 211 213 220 220 219 215 216 221 227 230 233 240 243 237 230 224 233 234 229 228 224 236 230 245 245 236 248 245 224 222 225 250 259 234 273 258 243 288 323 43 287 265 284 317 317 307 194 293 312 314 315 312 287 264 271 282 292 290 282 272 262 260 260 262 263 258 255 250 237
202 206 212 213 215 212 220 217 218 214 215 219 220 220 219 213 210 215 218 222 224 224 224 222 225 225 225 230 235 234 231 231 226 234 220 233 218 231 227 214 225 226 243 245 243 240 247 243 251 278 252 291 288 254 270 295 294 273 211 253 284 301 318 316 261 292 309 313 306 310 286 274 272 263 266 263 260 260 260 263 261 260 257 253 245
204 212 212 213 218 222 225 225 224 215 214 219 216 217 217 219 214 218 217 219 224 227 231 235 232 231 231 232 232 233 230 235 231 231 227 218 219 239 236 202 219 222 238 239 238 247 254 266 279 266 279 283 273 289 301 287 257 278 256 207 264 274 289 303 297 258 237 272 290 290 291 303 303 291 288 288 266 258 254 244 264 261 257 253 248
280 239 221 226 225 228 229 225 219 213 219 217 224 224 223 220 215 222 219 220 220 223 229 235 239 234 238 237 240 241 242 244 243 238 239 238 236 237 246 218 230 228 233 244 243 235 246 262 264 276 285 276 277 258 264 264 273 242 264 226 257 283 296 265 270 264 207 228 266 283 286 287 289 289 276 272 270 234 269 242 244 253 259 249 242
46 356 320 278 240 226 230 230 224 220 221 223 221 219 222 227 227 224 224 230 222 222 225 226 235 235 236 235 239 245 248 250 250 247 242 239 240 243 249 246 233 223 235 242 244 226 234 249 262 256 249 273 276 271 255 279 281 260 268 263 256 266 273 305 302 307 337 188 229 249 282 280 262 281 285 276 276 269 254 254 259 256 254 257 252
17 4 332 313 306 292 265 245 235 229 231 231 226 222 221 224 224 228 226 231 227 225 226 227 233 236 239 236 235 232 232 234 243 251 249 246 243 244 245 247 247 241 235 232 251 256 224 239 250 251 253 253 273 277 275 267 276 278 245 241 245 251 261 251 249 265 251 63 305 300 291 258 220 255 273 269 270 268 265 265 261 255 254 255 253
200 227 233 258 270 269 253 258 255 247 246 237 230 227 225 225 225 226 237 232 233 233 226 229 234 239 239 241 247 235 239 242 242 242 247 257 256 251 252 256 254 244 240 240 237 237 251 240 241 260 244 250 260 262 233 238 226 264 281 263 242 230 236 250 261 272 281 155 287 289 289 286 189 264 271 268 272 275 278 265 258 257 258 255 253
210 225 243 242 237 236 235 233 241 248 248 257 240 232 229 228 228 220 232 237 237 238 236 227 229 227 229 234 241 247 235 233 240 239 235 242 250 256 254 242 243 253 247 236 236 237 237 239 238 246 255 214 241 252 256 222 221 256 263 266 270 266 255 253 265 259 268 121 264 297 291 286 185 250 263 277 263 268 258 269 270 267 263 258 252
209 221 226 248 250 238 233 230 230 234 240 244 245 238 232 229 230 219 234 241 244 242 238 234 233 230 231 223 226 238 248 236 223 220 226 235 237 245 255 254 249 250 250 247 232 220 211 219 226 233 250 247 241 247 256 248 233 245 247 259 269 273 282 299 276 243 261 211 224 203 264 291 125 260 268 278 287 274 268 277 267 266 266 262 256
203 138 184 209 223 229 237 249 251 254 257 230 238 239 233 232 221 207 216 226 233 241 245 242 238 237 236 228 228 235 243 247 248 232 230 232 234 251 256 260 262 256 252 248 246 243 235 219 213 224 235 243 246 244 245 245 249 248 265 270 275 267 285 288 280 287 273 191 191 192 249 276 233 261 282 287 288 281 279 268 272 265 268 267 261
33 14 288 267 265 243 223 193 214 243 273 269 264 266 246 227 183 206 209 221 232 239 244 245 245 245 240 231 229 239 248 251 253 248 240 225 245 246 252 262 265 270 268 265 232 234 240 240 240 241 244 248 253 254 255 254 249 264 297 280 262 244 260 276 278 276 274 237 191 205 238 276 273 242 279 281 275 278 278 277 275 266 265 276 269
339 336 325 322 328 320 312 303 260 275 281 274 265 277 298 292 251 212 208 208 229 239 250 251 252 255 254 256 250 248 254 262 270 274 252 195 231 243 251 259 270 269 269 267 272 241 225 237 245 247 249 253 254 256 259 257 250 218 210 238 252 254 262 258 276 282 292 283 239 170 219 250 278 253 272 277 280 233 254 257 272 275 282 276 265
346 328 328 322 313 312 318 316 303 277 281 273 226 261 264 266 256 284 253 233 246 248 253 267 269 259 265 260 261 264 270 283 302 298 266 197 234 238 244 255 262 267 264 278 280 284 284 272 251 235 244 242 240 239 247 248 247 213 207 230 255 234 255 260 261 282 291 276 229 159 205 247 243 242 228 292 290 281 208 275 276 275 260 255 264